Regional Weather Roundup
Issued by NWS

Home | Current Version | Previous Version | Text Only | Print | Product List | Glossary Off
Versions: 1 2 3 4 5 6 7 8 9 10 11 12 13 14 15 16 17 18 19 20 21 22 23 24 25 26 27 28 29 30 31 32 33 34 35 36 37 38 39 40 41 42 43 44 45 46 47 48 49 50

000
ASUS43 KDMX 280008
RWRIA

WEATHER ROUNDUP FOR IOWA
NATIONAL WEATHER SERVICE DES MOINES IA
700 PM CDT TUE SEP 27 2016

NOTE: "FAIR" INDICATES FEW OR NO CLOUDS BELOW 12,000 FEET WITH NO
SIGNIFICANT WEATHER AND/OR OBSTRUCTIONS TO VISIBILITY.

* - THESE STATIONS ARE NOT NWS STATIONS...THUS NOT UNDER NWS
QUALITY CONTROL.  THEY ALSO DO NOT REPORT WEATHER SUCH
AS PRECIPITATION OR FOG.

IAZ001>003-012>014-020>022-031>034-043>046-280100-
   NORTHWEST IOWA

CITY           SKY/WX    TMP DP  RH WIND       PRES   REMARKS
CARROLL *      CLEAR     68  45  42 W5        29.83S
CHEROKEE *     CLEAR     67  46  46 NW5       29.84S
DENISON *      CLEAR     70  43  37 W8        29.83S
LE MARS *      CLEAR     70  46  43 NW6       29.85S
ORANGE CITY *  CLEAR     68  46  45 NW8       29.85S
SHELDON *      CLEAR     66  43  42 N7        29.84R
SIOUX CITY     CLEAR     71  48  43 NW9       29.85F
6HR MIN TEMP:  71; 6HR MAX TEMP:  77;

SPENCER        PTCLDY    67  41  38 NW12G24   29.84R
6HR MIN TEMP:  67; 6HR MAX TEMP:  72;

STORM LAKE *   CLEAR     68  43  40 NW9       29.85R
$$

IAZ055>058-069>071-079>083-090>094-280100-
   SOUTHWEST IOWA

CITY           SKY/WX    TMP DP  RH WIND       PRES   REMARKS
ATLANTIC *     CLEAR     70  43  37 W6        29.85S
AUDUBON *      CLEAR     68  43  40 W5        29.85F
CLARINDA *       N/A     72  46  40 MISG      29.87F
COUNCIL BLFS * CLEAR     72  46  40 NW5       29.86S
CRESTON *      CLEAR     66  45  45 W7        29.86S
HARLAN  *      CLEAR     70  43  37 NW7       29.88F
LAMONI         CLEAR     68  46  45 W7        29.85S
6HR MIN TEMP:  68; 6HR MAX TEMP:  77;

RED OAK *      CLEAR     72  45  37 W6        29.86S
SHENANDOAH *   CLEAR     72  46  40 CALM      29.86F
$$

IAZ047>049-059>061-072>074-084-280100-
   CENTRAL IOWA

CITY           SKY/WX    TMP DP  RH WIND       PRES   REMARKS
AMES           PTCLDY    70  45  40 NW10      29.80S
6HR MIN TEMP:  70; 6HR MAX TEMP:  74;

ANKENY *         N/A    N/A N/A N/A MISG        N/A
BOONE *        PTCLDY    70  43  37 NW9G18    29.80S
CHARITON *       N/A     66  46  48 W6        29.82F
DES MOINES     PTCLDY    69  45  41 W7        29.81R
6HR MIN TEMP:  69; 6HR MAX TEMP:  76;

GRINNELL*      PTCLDY    67  43  41 W6        29.80S
KNOXVILLE *    CLEAR     68  43  40 W8        29.80S
MARSHALLTOWN   PTCLDY    65  43  44 W8        29.78S
6HR MIN TEMP:  65; 6HR MAX TEMP:  73;

NEWTON *       CLOUDY    70  43  37 W8G16     29.79S
PELLA *        CLEAR     68  47  47 W5        29.81F
PERRY *          N/A     70  41  35 W6        29.82S
$$

IAZ004>006-015-016-023>025-035-036-280100-
   NORTH CENTRAL IOWA

CITY           SKY/WX    TMP DP  RH WIND       PRES   REMARKS
ALGONA *       MOCLDY    68  34  28 NW9G16    29.81S
CLARION *      MOCLDY    66  39  37 NW12      29.80S
ESTHERVILLE    MOCLDY    65  30  27 NW12      29.82R
6HR MIN TEMP:  65; 6HR MAX TEMP:  72;

FORT DODGE *   PTCLDY    70  43  37 NW8       29.82S
MASON CITY     PTCLDY    62  32  32 NW10      29.80S
6HR MIN TEMP:  62; 6HR MAX TEMP:  69;

FOREST CITY *    N/A     61  32  33 NW6       29.79S
WEBSTER CITY * CLEAR     68  43  40 NW9       29.78S
IOWA FALLS *     N/A     67  38  34 NW8       29.80S
$$

IAZ007>011-017>019-026>030-037>042-050>054-066-280100-
   NORTHEAST IOWA

CITY           SKY/WX    TMP DP  RH WIND       PRES   REMARKS
CEDAR RAPIDS   PTCLDY    62  41  46 W7        29.77S
6HR MIN TEMP:  62; 6HR MAX TEMP:  72;

CHARLES CITY * CLOUDY    63  34  34 NW8       29.78S
CLINTON *      MOCLDY    62  36  37 W6        29.77S
DECORAH *      CLOUDY    59  36  41 NW9       29.77R
DUBUQUE        PTCLDY    61  37  41 NW3       29.77S
6HR MIN TEMP:  60; 6HR MAX TEMP:  69;

MONTICELLO *   PTCLDY    63  34  34 NW5       29.76R
OELWEIN *      MOCLDY    63  34  34 NW8G15    29.77S
WATERLOO       MOCLDY    64  31  28 W5        29.76S
6HR MIN TEMP:  64; 6HR MAX TEMP:  72;

$$

IAZ064-065-067-068-078-280100-
   EAST CENTRAL IOWA

CITY           SKY/WX    TMP DP  RH WIND       PRES   REMARKS
DAVENPORT      PTCLDY    65  34  31 W8        29.78S
6HR MIN TEMP:  65; 6HR MAX TEMP:  74;

IOWA CITY      PTCLDY    64  42  44 W6        29.79S
6HR MIN TEMP:  64; 6HR MAX TEMP:  73;

MT. PLEASANT * CLEAR     68  43  41 W3        29.80S
MUSCATINE *    PTCLDY    66  39  37 W8        29.78S
QUAD CITIES    PTCLDY    64  40  41 W6        29.77S
6HR MIN TEMP:  64; 6HR MAX TEMP:  75;

$$

IAZ062-063-075>077-085>089-095>099-280100-
   SOUTHEAST IOWA

CITY           SKY/WX    TMP DP  RH WIND       PRES   REMARKS
BURLINGTON     CLEAR     67  42  40 W6        29.79F
6HR MIN TEMP:  67; 6HR MAX TEMP:  75;

FAIRFIELD *    CLEAR     68  41  37 W8        29.80S
FORT MADISON *   N/A     66  41  39 W6        29.81S
KEOKUK *       CLEAR     68  43  40 W3        29.80S
OSKALOOSA *      N/A     69  41  36 W8        29.81S
CENTERVILLE *    N/A     66  43  42 W6        29.84S
OTTUMWA        CLEAR     66  42  41 W7        29.79F
6HR MIN TEMP:  66; 6HR MAX TEMP:  76;

WASHINGTON *     N/A    N/A N/A N/A MISG        N/A
$$

ABBREVIATIONS USED IN REMARKS
   TC - TEMPERATURES IN CELSIUS
  WCI - WIND CHILL INDEX
   HX - HEAT INDEX
  VSB - VISIBILITY
$$





USA.gov is the U.S. government's official web portal to all federal, state and local government web resources and services.